owner,sensor,date,latitude,longitude,vertical_datum,wind_speed,wind_to_direction,wind_speed_of_gust,qcFlag 
TABS,ioos:station:wmo:42046:1,2008-05-01T00:00:00Z,27.8903,-94.0367,4.0,8.823565039,153.2609828,10.49,'11111222,11111222,11111222' 
TABS,ioos:station:wmo:42046:1,2008-05-01T00:30:00Z,27.8903,-94.0367,4.0,9.628338382,158.0441486,12.27,'11111222,11111222,11111222' 
TABS,ioos:station:wmo:42046:1,2008-05-01T01:00:00Z,27.8903,-94.0367,4.0,9.67819198,159.243274,12.79,'11111222,11111222,11111222' 
TABS,ioos:station:wmo:42046:1,2008-05-01T01:30:00Z,27.8903,-94.0367,4.0,9.967507211,161.6380149,13.03,'11111222,11111222,11111222' 
TABS,ioos:station:wmo:42046:1,2008-05-01T02:00:00Z,27.8903,-94.0367,4.0,9.86105471,162.4105288,12.9,'11111222,11111222,11111222' 
TABS,ioos:station:wmo:42046:1,2008-05-01T02:30:00Z,27.8903,-94.0367,4.0,10.57682372,163.8613868,13.75,'11111222,11111222,11111222' 
TABS,ioos:station:wmo:42046:1,2008-05-01T03:00:00Z,27.8903,-94.0367,4.0,10.19148664,166.2639743,12.8,'11111222,11111222,11111222' 
TABS,ioos:station:wmo:42046:1,2008-05-01T03:30:00Z,27.8903,-94.0367,4.0,10.40781437,164.1077843,13.01,'11111222,11111222,11111222' 
TABS,ioos:station:wmo:42046:1,2008-05-01T04:00:00Z,27.8903,-94.0367,4.0,10.38780535,166.0175096,13.67,'11111222,11111222,11111222' 
TABS,ioos:station:wmo:42046:1,2008-05-01T04:30:00Z,27.8903,-94.0367,4.0,10.17150923,169.4636272,14.13,'11111222,11111222,11111222' 
TABS,ioos:station:wmo:42046:1,2008-05-01T05:00:00Z,27.8903,-94.0367,4.0,10.71270741,170.0015488,13.65,'11111222,11111222,11111222' 
TABS,ioos:station:wmo:42046:1,2008-05-01T05:30:00Z,27.8903,-94.0367,4.0,10.72876973,170.7749581,13.61,'11111222,11111222,11111222' 
TABS,ioos:station:wmo:42046:1,2008-05-01T06:00:00Z,27.8903,-94.0367,4.0,10.51070407,172.8954948,13.9,'11111222,11111222,11111222' 
TABS,ioos:station:wmo:42046:1,2008-05-01T06:30:00Z,27.8903,-94.0367,4.0,10.22299369,172.694468,13.39,'11111222,11111222,11111222' 
TABS,ioos:station:wmo:42046:1,2008-05-01T07:00:00Z,27.8903,-94.0367,4.0,10.30274235,171.5162121,13.74,'11111222,11111222,11111222' 
TABS,ioos:station:wmo:42046:1,2008-05-01T07:30:00Z,27.8903,-94.0367,4.0,10.35332314,175.4020277,13.36,'11111222,11111222,11111222' 
TABS,ioos:station:wmo:42046:1,2008-05-01T08:00:00Z,27.8903,-94.0367,4.0,10.20403842,176.0666232,13.04,'11111222,11111222,11111222' 
TABS,ioos:station:wmo:42046:1,2008-05-01T08:30:00Z,27.8903,-94.0367,4.0,10.25914226,173.8450565,13.21,'11111222,11111222,11111222' 
TABS,ioos:station:wmo:42046:1,2008-05-01T09:00:00Z,27.8903,-94.0367,4.0,9.620249477,172.5944969,12.59,'11111222,11111222,11111222' 
TABS,ioos:station:wmo:42046:1,2008-05-01T09:30:00Z,27.8903,-94.0367,4.0,9.630664567,170.1955881,12.36,'11111222,11111222,11111222' 
TABS,ioos:station:wmo:42046:1,2008-05-01T10:00:00Z,27.8903,-94.0367,4.0,8.75703146,171.4629944,11.48,'11111222,11111222,11111222' 
TABS,ioos:station:wmo:42046:1,2008-05-01T10:30:00Z,27.8903,-94.0367,4.0,8.08084154,175.8842934,11.33,'11111222,11111222,11111222' 
TABS,ioos:station:wmo:42046:1,2008-05-01T11:00:00Z,27.8903,-94.0367,4.0,7.790006418,180.0737607,9.98,'11111222,11111222,11111222' 
TABS,ioos:station:wmo:42046:1,2008-05-01T11:30:00Z,27.8903,-94.0367,4.0,8.558673963,175.3088527,11.38,'11111222,11111222,11111222' 
TABS,ioos:station:wmo:42046:1,2008-05-01T12:00:00Z,27.8903,-94.0367,4.0,8.372156234,171.9669102,11.25,'11111222,11111222,11111222' 
TABS,ioos:station:wmo:42046:1,2008-05-01T12:30:00Z,27.8903,-94.0367,4.0,8.167429216,170.2726547,10.23,'11111222,11111222,11111222' 
TABS,ioos:station:wmo:42046:1,2008-05-01T13:00:00Z,27.8903,-94.0367,4.0,8.05263311,169.9881324,10.87,'11111222,11111222,11111222' 
TABS,ioos:station:wmo:42046:1,2008-05-01T13:30:00Z,27.8903,-94.0367,4.0,7.998424845,167.875463,10.6,'11111222,11111222,11111222' 
TABS,ioos:station:wmo:42046:1,2008-05-01T14:00:00Z,27.8903,-94.0367,4.0,8.059311385,164.6017171,10.32,'11111222,11111222,11111222' 
TABS,ioos:station:wmo:42046:1,2008-05-01T14:30:00Z,27.8903,-94.0367,4.0,7.71020752,165.9639998,10.01,'11111222,11111222,11111222' 
TABS,ioos:station:wmo:42046:1,2008-05-01T15:00:00Z,27.8903,-94.0367,4.0,8.093763031,169.9676496,10.26,'11111222,11111222,11111222' 
TABS,ioos:station:wmo:42046:1,2008-05-01T15:30:00Z,27.8903,-94.0367,4.0,8.272714186,169.3422893,10.72,'11111222,11111222,11111222' 
TABS,ioos:station:wmo:42046:1,2008-05-01T16:00:00Z,27.8903,-94.0367,4.0,8.074583581,168.0640714,10.91,'11111222,11111222,11111222' 
TABS,ioos:station:wmo:42046:1,2008-05-01T16:30:00Z,27.8903,-94.0367,4.0,8.601627753,166.9656829,10.73,'11111222,11111222,11111222' 
TABS,ioos:station:wmo:42046:1,2008-05-01T17:00:00Z,27.8903,-94.0367,4.0,8.765249569,165.8688771,11.79,'11111222,11111222,11111222' 
TABS,ioos:station:wmo:42046:1,2008-05-01T17:30:00Z,27.8903,-94.0367,4.0,9.474017099,163.6311858,12.47,'11111222,11111222,11111222' 
TABS,ioos:station:wmo:42046:1,2008-05-01T18:00:00Z,27.8903,-94.0367,4.0,8.80858672,159.6726029,11.57,'11111222,11111222,11111222' 
TABS,ioos:station:wmo:42046:1,2008-05-01T18:30:00Z,27.8903,-94.0367,4.0,8.297258583,156.8651446,11.34,'11111222,11111222,11111222' 
TABS,ioos:station:wmo:42046:1,2008-05-01T19:00:00Z,27.8903,-94.0367,4.0,8.489905771,154.6123635,11.05,'11111222,11111222,11111222' 
TABS,ioos:station:wmo:42046:1,2008-05-01T19:30:00Z,27.8903,-94.0367,4.0,8.934752375,151.742953,11.49,'11111222,11111222,11111222' 
TABS,ioos:station:wmo:42046:1,2008-05-01T20:00:00Z,27.8903,-94.0367,4.0,8.890050619,151.7344413,11.49,'11111222,11111222,11111222' 
TABS,ioos:station:wmo:42046:1,2008-05-01T20:30:00Z,27.8903,-94.0367,4.0,8.604952063,154.0903406,10.95,'11111222,11111222,11111222' 
TABS,ioos:station:wmo:42046:1,2008-05-01T21:00:00Z,27.8903,-94.0367,4.0,8.93078384,157.4840338,12.12,'11111222,11111222,11111222' 
TABS,ioos:station:wmo:42046:1,2008-05-01T21:30:00Z,27.8903,-94.0367,4.0,9.897929076,156.9840954,13.36,'11111222,11111222,11111222' 
TABS,ioos:station:wmo:42046:1,2008-05-01T22:00:00Z,27.8903,-94.0367,4.0,8.975661536,156.0053705,11.61,'11111222,11111222,11111222' 
TABS,ioos:station:wmo:42046:1,2008-05-01T22:30:00Z,27.8903,-94.0367,4.0,8.972847931,158.009132,11.42,'11111222,11111222,11111222' 
TABS,ioos:station:wmo:42046:1,2008-05-01T23:00:00Z,27.8903,-94.0367,4.0,8.377696581,157.3225293,11.02,'11111222,11111222,11111222' 
TABS,ioos:station:wmo:42046:1,2008-05-01T23:30:00Z,27.8903,-94.0367,4.0,7.346032943,155.9823429,10.01,'11111222,11111222,11111222' 
TABS,ioos:station:wmo:42046:1,2008-05-02T00:00:00Z,27.8903,-94.0367,4.0,7.760734501,152.2795582,9.8,'11111222,11111222,11111222' 
TABS,ioos:station:wmo:42046:1,2008-05-02T00:30:00Z,27.8903,-94.0367,4.0,8.756734551,152.9670345,11.28,'11111222,11111222,11111222' 
TABS,ioos:station:wmo:42046:1,2008-05-02T01:00:00Z,27.8903,-94.0367,4.0,8.950558642,158.0205466,11.65,'11111222,11111222,11111222' 
TABS,ioos:station:wmo:42046:1,2008-05-02T01:30:00Z,27.8903,-94.0367,4.0,9.712548584,158.8780419,12.2,'11111222,11111222,11111222' 
TABS,ioos:station:wmo:42046:1,2008-05-02T02:00:00Z,27.8903,-94.0367,4.0,10.77549535,162.5574108,13.86,'11111222,11111222,11111222' 
TABS,ioos:station:wmo:42046:1,2008-05-02T02:30:00Z,27.8903,-94.0367,4.0,11.34817166,162.6191192,14.48,'11111222,11111222,11111222' 
TABS,ioos:station:wmo:42046:1,2008-05-02T03:00:00Z,27.8903,-94.0367,4.0,10.53459539,162.3736856,13.6,'11111222,11111222,11111222' 
TABS,ioos:station:wmo:42046:1,2008-05-02T03:30:00Z,27.8903,-94.0367,4.0,10.66698177,165.5601491,13.46,'11111222,11111222,11111222' 
TABS,ioos:station:wmo:42046:1,2008-05-02T04:00:00Z,27.8903,-94.0367,4.0,11.47193532,165.9761131,15.03,'11111222,11111222,11111222' 
TABS,ioos:station:wmo:42046:1,2008-05-02T04:30:00Z,27.8903,-94.0367,4.0,10.36095073,168.9831246,13.19,'11111222,11111222,11111222' 
TABS,ioos:station:wmo:42046:1,2008-05-02T05:00:00Z,27.8903,-94.0367,4.0,8.756854458,172.9157884,11.66,'11111222,11111222,11111222' 
TABS,ioos:station:wmo:42046:1,2008-05-02T05:30:00Z,27.8903,-94.0367,4.0,7.026841396,177.4717036,9.28,'11111222,11111222,11111222' 
TABS,ioos:station:wmo:42046:1,2008-05-02T06:00:00Z,27.8903,-94.0367,4.0,7.370189957,172.6727194,9.38,'11111222,11111222,11111222' 
TABS,ioos:station:wmo:42046:1,2008-05-02T06:30:00Z,27.8903,-94.0367,4.0,6.943486156,178.18453,8.68,'11111222,11111222,11111222' 
TABS,ioos:station:wmo:42046:1,2008-05-02T07:00:00Z,27.8903,-94.0367,4.0,6.475940086,173.1715082,8.94,'11111222,11111222,11111222' 
TABS,ioos:station:wmo:42046:1,2008-05-02T07:30:00Z,27.8903,-94.0367,4.0,6.710476883,171.6890034,8.65,'11111222,11111222,11111222' 
TABS,ioos:station:wmo:42046:1,2008-05-02T08:00:00Z,27.8903,-94.0367,4.0,6.712927826,167.3510827,8.35,'11111222,11111222,11111222' 
TABS,ioos:station:wmo:42046:1,2008-05-02T08:30:00Z,27.8903,-94.0367,4.0,5.758654357,166.9534219,7.37,'11111222,11111222,11111222' 
TABS,ioos:station:wmo:42046:1,2008-05-02T09:00:00Z,27.8903,-94.0367,4.0,6.923496227,164.7596437,8.36,'11111222,11111222,11111222' 
TABS,ioos:station:wmo:42046:1,2008-05-02T09:30:00Z,27.8903,-94.0367,4.0,7.432590396,164.1501504,9.4,'11111222,11111222,11111222' 
TABS,ioos:station:wmo:42046:1,2008-05-02T10:00:00Z,27.8903,-94.0367,4.0,6.902615446,165.742549,9.06,'11111222,11111222,11111222' 
TABS,ioos:station:wmo:42046:1,2008-05-02T10:30:00Z,27.8903,-94.0367,4.0,7.590322786,170.674417,9.58,'11111222,11111222,11111222' 
TABS,ioos:station:wmo:42046:1,2008-05-02T11:00:00Z,27.8903,-94.0367,4.0,7.731519902,169.4169987,9.39,'11111222,11111222,11111222' 
TABS,ioos:station:wmo:42046:1,2008-05-02T11:30:00Z,27.8903,-94.0367,4.0,7.963573319,172.2058996,9.99,'11111222,11111222,11111222' 
TABS,ioos:station:wmo:42046:1,2008-05-02T12:00:00Z,27.8903,-94.0367,4.0,7.325441966,175.2235892,9.06,'11111222,11111222,11111222' 
TABS,ioos:station:wmo:42046:1,2008-05-02T12:30:00Z,27.8903,-94.0367,4.0,7.259290599,171.5241027,9.57,'11111222,11111222,11111222' 
TABS,ioos:station:wmo:42046:1,2008-05-02T13:00:00Z,27.8903,-94.0367,4.0,7.368717663,171.1003663,9.31,'11111222,11111222,11111222' 
TABS,ioos:station:wmo:42046:1,2008-05-02T13:30:00Z,27.8903,-94.0367,4.0,7.368527668,170.1544111,8.86,'11111222,11111222,11111222' 
TABS,ioos:station:wmo:42046:1,2008-05-02T14:00:00Z,27.8903,-94.0367,4.0,7.436370082,165.5155108,9.41,'11111222,11111222,11111222' 
TABS,ioos:station:wmo:42046:1,2008-05-02T14:30:00Z,27.8903,-94.0367,4.0,7.55440269,168.7795499,9.52,'11111222,11111222,11111222' 
TABS,ioos:station:wmo:42046:1,2008-05-02T15:00:00Z,27.8903,-94.0367,4.0,7.562288014,168.4822817,9.5,'11111222,11111222,11111222' 
TABS,ioos:station:wmo:42046:1,2008-05-02T15:30:00Z,27.8903,-94.0367,4.0,8.078923196,165.7403914,9.92,'11111222,11111222,11111222' 
TABS,ioos:station:wmo:42046:1,2008-05-02T16:00:00Z,27.8903,-94.0367,4.0,8.053483718,164.2209824,10.18,'11111222,11111222,11111222' 
TABS,ioos:station:wmo:42046:1,2008-05-02T16:30:00Z,27.8903,-94.0367,4.0,8.031494257,162.9866853,10.36,'11111222,11111222,11111222' 
TABS,ioos:station:wmo:42046:1,2008-05-02T17:00:00Z,27.8903,-94.0367,4.0,8.372126373,164.0548518,10.56,'11111222,11111222,11111222' 
TABS,ioos:station:wmo:42046:1,2008-05-02T17:30:00Z,27.8903,-94.0367,4.0,8.94503773,168.326009,12.11,'11111222,11111222,11111222' 
TABS,ioos:station:wmo:42046:1,2008-05-02T18:00:00Z,27.8903,-94.0367,4.0,9.665096999,170.7718086,11.8,'11111222,11111222,11111222' 
TABS,ioos:station:wmo:42046:1,2008-05-02T18:30:00Z,27.8903,-94.0367,4.0,9.591381548,174.6759945,12.37,'11111222,11111222,11111222' 
TABS,ioos:station:wmo:42046:1,2008-05-02T19:00:00Z,27.8903,-94.0367,4.0,9.469134068,174.7893593,12.12,'11111222,11111222,11111222' 
TABS,ioos:station:wmo:42046:1,2008-05-02T19:30:00Z,27.8903,-94.0367,4.0,8.865855853,176.573039,11.13,'11111222,11111222,11111222' 
TABS,ioos:station:wmo:42046:1,2008-05-02T20:00:00Z,27.8903,-94.0367,4.0,8.661870468,178.8094794,11.05,'11111222,11111222,11111222' 
TABS,ioos:station:wmo:42046:1,2008-05-02T20:30:00Z,27.8903,-94.0367,4.0,7.327079909,183.9131067,9.55,'11111222,11111222,11111222' 
TABS,ioos:station:wmo:42046:1,2008-05-02T21:00:00Z,27.8903,-94.0367,4.0,4.92327127,192.3143994,6.41,'11111222,11111222,11111222' 
TABS,ioos:station:wmo:42046:1,2008-05-02T21:30:00Z,27.8903,-94.0367,4.0,3.858523033,189.0963312,4.99,'11111222,11111222,11111222' 
TABS,ioos:station:wmo:42046:1,2008-05-02T22:00:00Z,27.8903,-94.0367,4.0,4.035467755,182.9831417,5.28,'11111222,11111222,11111222' 
TABS,ioos:station:wmo:42046:1,2008-05-02T22:30:00Z,27.8903,-94.0367,4.0,4.758833891,171.7849925,6.27,'11111222,11111222,11111222' 
TABS,ioos:station:wmo:42046:1,2008-05-02T23:00:00Z,27.8903,-94.0367,4.0,5.218170177,173.0658778,6.61,'11111222,11111222,11111222' 
TABS,ioos:station:wmo:42046:1,2008-05-02T23:30:00Z,27.8903,-94.0367,4.0,5.457655174,173.2658568,7.17,'11111222,11111222,11111222' 
TABS,ioos:station:wmo:42046:1,2008-05-03T00:00:00Z,27.8903,-94.0367,4.0,5.49637153,166.7477837,6.76,'11111222,11111222,11111222' 
TABS,ioos:station:wmo:42046:1,2008-05-03T00:30:00Z,27.8903,-94.0367,4.0,5.317236124,163.9512432,6.61,'11111222,11111222,11111222' 
TABS,ioos:station:wmo:42046:1,2008-05-03T01:00:00Z,27.8903,-94.0367,4.0,5.777006145,158.3646055,6.9,'11111222,11111222,11111222' 
TABS,ioos:station:wmo:42046:1,2008-05-03T01:30:00Z,27.8903,-94.0367,4.0,6.372009102,161.4231322,7.87,'11111222,11111222,11111222' 
TABS,ioos:station:wmo:42046:1,2008-05-03T02:00:00Z,27.8903,-94.0367,4.0,6.536206851,163.2842129,8.18,'11111222,11111222,11111222' 
TABS,ioos:station:wmo:42046:1,2008-05-03T02:30:00Z,27.8903,-94.0367,4.0,6.738323234,159.9517696,8.41,'11111222,11111222,11111222' 
TABS,ioos:station:wmo:42046:1,2008-05-03T03:00:00Z,27.8903,-94.0367,4.0,6.525588096,158.7042927,8.29,'11111222,11111222,11111222' 
TABS,ioos:station:wmo:42046:1,2008-05-03T03:30:00Z,27.8903,-94.0367,4.0,6.780029498,161.2446235,8.44,'11111222,11111222,11111222' 
TABS,ioos:station:wmo:42046:1,2008-05-03T04:00:00Z,27.8903,-94.0367,4.0,7.03042673,162.3642476,8.61,'11111222,11111222,11111222' 
TABS,ioos:station:wmo:42046:1,2008-05-03T04:30:00Z,27.8903,-94.0367,4.0,7.072877774,165.2566821,9.0,'11111222,11111222,11111222' 
TABS,ioos:station:wmo:42046:1,2008-05-03T05:00:00Z,27.8903,-94.0367,4.0,7.434924344,169.0681389,9.38,'11111222,11111222,11111222' 
TABS,ioos:station:wmo:42046:1,2008-05-03T05:30:00Z,27.8903,-94.0367,4.0,7.052836309,170.2040234,8.96,'11111222,11111222,11111222' 
TABS,ioos:station:wmo:42046:1,2008-05-03T06:00:00Z,27.8903,-94.0367,4.0,6.972302346,172.3349903,8.55,'11111222,11111222,11111222' 
TABS,ioos:station:wmo:42046:1,2008-05-03T06:30:00Z,27.8903,-94.0367,4.0,5.79124339,171.6602539,7.6,'11111222,11111222,11111222' 
TABS,ioos:station:wmo:42046:1,2008-05-03T07:00:00Z,27.8903,-94.0367,4.0,5.937415263,166.3618798,7.57,'11111222,11111222,11111222' 
TABS,ioos:station:wmo:42046:1,2008-05-03T07:30:00Z,27.8903,-94.0367,4.0,6.769963072,170.649218,8.32,'11111222,11111222,11111222' 
TABS,ioos:station:wmo:42046:1,2008-05-03T08:00:00Z,27.8903,-94.0367,4.0,6.262587325,178.3531856,7.88,'11111222,11111222,11111222' 
TABS,ioos:station:wmo:42046:1,2008-05-03T08:30:00Z,27.8903,-94.0367,4.0,4.960645119,179.0761673,6.5,'11111222,11111222,11111222' 
TABS,ioos:station:wmo:42046:1,2008-05-03T09:00:00Z,27.8903,-94.0367,4.0,4.300744122,181.066053,5.47,'11111222,11111222,11111222' 
TABS,ioos:station:wmo:42046:1,2008-05-03T09:30:00Z,27.8903,-94.0367,4.0,4.345491917,186.2093429,5.75,'11111222,11111222,11111222' 
TABS,ioos:station:wmo:42046:1,2008-05-03T10:00:00Z,27.8903,-94.0367,4.0,3.982875845,175.3918847,5.21,'11111222,11111222,11111222' 
TABS,ioos:station:wmo:42046:1,2008-05-03T10:30:00Z,27.8903,-94.0367,4.0,1.298075499,195.6424203,2.05,'11111222,11111222,11111222' 
TABS,ioos:station:wmo:42046:1,2008-05-03T11:00:00Z,27.8903,-94.0367,4.0,0.383275358,262.5041599,1.34,'11111222,11111222,11111222' 
TABS,ioos:station:wmo:42046:1,2008-05-03T11:30:00Z,27.8903,-94.0367,4.0,1.680773631,173.509454,2.79,'11111222,11111222,11111222' 
TABS,ioos:station:wmo:42046:1,2008-05-03T12:00:00Z,27.8903,-94.0367,4.0,0.770584194,177.7690411,1.67,'11111222,11111222,11111222' 
TABS,ioos:station:wmo:42046:1,2008-05-03T12:30:00Z,27.8903,-94.0367,4.0,1.691449083,129.242069,2.42,'11111222,11111222,11111222' 
TABS,ioos:station:wmo:42046:1,2008-05-03T13:00:00Z,27.8903,-94.0367,4.0,0.933809402,136.7360162,1.72,'11111222,11111222,11111222' 
TABS,ioos:station:wmo:42046:1,2008-05-03T13:30:00Z,27.8903,-94.0367,4.0,0.563560112,27.47415692,1.31,'11111222,11111222,11111222' 
TABS,ioos:station:wmo:42046:1,2008-05-03T14:00:00Z,27.8903,-94.0367,4.0,1.390323703,54.36617237,2.08,'11111222,11111222,11111222' 
TABS,ioos:station:wmo:42046:1,2008-05-03T14:30:00Z,27.8903,-94.0367,4.0,1.200041666,90.47787358,2.2,'11111222,11111222,11111222' 
TABS,ioos:station:wmo:42046:1,2008-05-03T15:00:00Z,27.8903,-94.0367,4.0,1.93,90.00042092,2.66,'11111222,11111222,11111222' 
TABS,ioos:station:wmo:42046:1,2008-05-03T15:30:00Z,27.8903,-94.0367,4.0,0.630713881,25.34590621,1.69,'11111222,11111222,11111222' 
TABS,ioos:station:wmo:42046:1,2008-05-03T16:00:00Z,27.8903,-94.0367,4.0,0.924391692,95.58765182,1.7,'11111222,11111222,11111222' 
TABS,ioos:station:wmo:42046:1,2008-05-03T16:30:00Z,27.8903,-94.0367,4.0,1.79621825,127.7634106,2.65,'11111222,11111222,11111222' 
TABS,ioos:station:wmo:42046:1,2008-05-03T17:00:00Z,27.8903,-94.0367,4.0,1.027034566,83.28975797,1.86,'11111222,11111222,11111222' 
TABS,ioos:station:wmo:42046:1,2008-05-03T17:30:00Z,27.8903,-94.0367,4.0,1.70531522,110.2418261,2.54,'11111222,11111222,11111222' 
TABS,ioos:station:wmo:42046:1,2008-05-03T18:00:00Z,27.8903,-94.0367,4.0,1.28082005,132.7855657,2.11,'11111222,11111222,11111222' 
TABS,ioos:station:wmo:42046:1,2008-05-03T18:30:00Z,27.8903,-94.0367,4.0,1.098954048,97.31942318,1.91,'11111222,11111222,11111222' 
TABS,ioos:station:wmo:42046:1,2008-05-03T19:00:00Z,27.8903,-94.0367,4.0,0.845340168,62.5252117,1.94,'11111222,11111222,11111222' 
TABS,ioos:station:wmo:42046:1,2008-05-03T19:30:00Z,27.8903,-94.0367,4.0,1.391869247,28.77444689,2.23,'11111222,11111222,11111222' 
TABS,ioos:station:wmo:42046:1,2008-05-03T20:00:00Z,27.8903,-94.0367,4.0,0.865332306,56.30959034,1.84,'11111222,11111222,11111222' 
TABS,ioos:station:wmo:42046:1,2008-05-03T20:30:00Z,27.8903,-94.0367,4.0,0.506063237,29.60417106,1.94,'11111222,11111222,11111222' 
TABS,ioos:station:wmo:42046:1,2008-05-03T21:00:00Z,27.8903,-94.0367,4.0,1.606113321,5.000422445,2.48,'11111222,11111222,11111222' 
TABS,ioos:station:wmo:42046:1,2008-05-03T21:30:00Z,27.8903,-94.0367,4.0,2.140490598,9.682117901,3.23,'11111222,11111222,11111222' 
TABS,ioos:station:wmo:42046:1,2008-05-03T22:00:00Z,27.8903,-94.0367,4.0,6.401812243,12.08201656,7.8,'11111222,11111222,11111222' 
TABS,ioos:station:wmo:42046:1,2008-05-03T22:30:00Z,27.8903,-94.0367,4.0,6.084118671,25.09058371,7.84,'11111222,11111222,11111222' 
TABS,ioos:station:wmo:42046:1,2008-05-03T23:00:00Z,27.8903,-94.0367,4.0,6.639073731,35.12605852,8.22,'11111222,11111222,11111222' 
TABS,ioos:station:wmo:42046:1,2008-05-03T23:30:00Z,27.8903,-94.0367,4.0,5.928996542,28.50992081,7.76,'11111222,11111222,11111222' 
TABS,ioos:station:wmo:42046:1,2008-05-04T00:00:00Z,27.8903,-94.0367,4.0,6.022001328,42.77899168,7.3,'11111222,11111222,11111222' 
TABS,ioos:station:wmo:42046:1,2008-05-04T00:30:00Z,27.8903,-94.0367,4.0,6.577453915,49.74796919,8.83,'11111222,11111222,11111222' 
TABS,ioos:station:wmo:42046:1,2008-05-04T01:00:00Z,27.8903,-94.0367,4.0,6.449379815,62.67969802,8.29,'11111222,11111222,11111222' 
TABS,ioos:station:wmo:42046:1,2008-05-04T01:30:00Z,27.8903,-94.0367,4.0,6.820337235,63.99813558,9.26,'11111222,11111222,11111222' 
TABS,ioos:station:wmo:42046:1,2008-05-04T02:00:00Z,27.8903,-94.0367,4.0,6.276591432,68.50334243,8.24,'11111222,11111222,11111222' 
TABS,ioos:station:wmo:42046:1,2008-05-04T02:30:00Z,27.8903,-94.0367,4.0,5.551801509,82.96418377,6.98,'11111222,11111222,11111222' 
TABS,ioos:station:wmo:42046:1,2008-05-04T03:00:00Z,27.8903,-94.0367,4.0,5.507531207,84.26829627,6.96,'11111222,11111222,11111222' 
TABS,ioos:station:wmo:42046:1,2008-05-04T03:30:00Z,27.8903,-94.0367,4.0,5.840496554,93.43600174,8.09,'11111222,11111222,11111222' 
TABS,ioos:station:wmo:42046:1,2008-05-04T04:00:00Z,27.8903,-94.0367,4.0,5.599089212,95.84337,7.69,'11111222,11111222,11111222' 
TABS,ioos:station:wmo:42046:1,2008-05-04T04:30:00Z,27.8903,-94.0367,4.0,5.505678886,71.13685628,6.75,'11111222,11111222,11111222' 
TABS,ioos:station:wmo:42046:1,2008-05-04T05:00:00Z,27.8903,-94.0367,4.0,5.376113838,68.73256862,6.4,'11111222,11111222,11111222' 
TABS,ioos:station:wmo:42046:1,2008-05-04T05:30:00Z,27.8903,-94.0367,4.0,5.896066485,79.64260656,8.41,'11111222,11111222,11111222' 
TABS,ioos:station:wmo:42046:1,2008-05-04T06:00:00Z,27.8903,-94.0367,4.0,4.744449388,85.52678687,5.73,'11111222,11111222,11111222' 
TABS,ioos:station:wmo:42046:1,2008-05-04T06:30:00Z,27.8903,-94.0367,4.0,4.821306877,93.92515709,6.28,'11111222,11111222,11111222' 
TABS,ioos:station:wmo:42046:1,2008-05-04T07:00:00Z,27.8903,-94.0367,4.0,4.566311422,86.98679862,5.68,'11111222,11111222,11111222' 
TABS,ioos:station:wmo:42046:1,2008-05-04T07:30:00Z,27.8903,-94.0367,4.0,4.104436624,77.04684486,4.91,'11111222,11111222,11111222' 
TABS,ioos:station:wmo:42046:1,2008-05-04T08:00:00Z,27.8903,-94.0367,4.0,3.658537959,62.66415712,4.49,'11111222,11111222,11111222' 
TABS,ioos:station:wmo:42046:1,2008-05-04T08:30:00Z,27.8903,-94.0367,4.0,4.179688984,56.11949268,4.98,'11111222,11111222,11111222' 
TABS,ioos:station:wmo:42046:1,2008-05-04T09:00:00Z,27.8903,-94.0367,4.0,4.906006523,53.03633823,6.12,'11111222,11111222,11111222' 
TABS,ioos:station:wmo:42046:1,2008-05-04T09:30:00Z,27.8903,-94.0367,4.0,4.828457311,47.85370261,5.85,'11111222,11111222,11111222' 
TABS,ioos:station:wmo:42046:1,2008-05-04T10:00:00Z,27.8903,-94.0367,4.0,4.526820076,41.50709932,5.47,'11111222,11111222,11111222' 
TABS,ioos:station:wmo:42046:1,2008-05-04T10:30:00Z,27.8903,-94.0367,4.0,4.599673901,31.30527809,5.9,'11111222,11111222,11111222' 
TABS,ioos:station:wmo:42046:1,2008-05-04T11:00:00Z,27.8903,-94.0367,4.0,4.533982797,50.72804673,5.94,'11111222,11111222,11111222' 
TABS,ioos:station:wmo:42046:1,2008-05-04T11:30:00Z,27.8903,-94.0367,4.0,4.797707786,42.80358225,6.06,'11111222,11111222,11111222' 
TABS,ioos:station:wmo:42046:1,2008-05-04T12:00:00Z,27.8903,-94.0367,4.0,4.4603251,51.27967675,5.78,'11111222,11111222,11111222' 
TABS,ioos:station:wmo:42046:1,2008-05-04T12:30:00Z,27.8903,-94.0367,4.0,4.487360026,69.38380559,6.35,'11111222,11111222,11111222' 
TABS,ioos:station:wmo:42046:1,2008-05-04T13:00:00Z,27.8903,-94.0367,4.0,5.267874334,75.93698923,7.04,'11111222,11111222,11111222' 
TABS,ioos:station:wmo:42046:1,2008-05-04T13:30:00Z,27.8903,-94.0367,4.0,5.301867595,80.55504509,7.22,'11111222,11111222,11111222' 
TABS,ioos:station:wmo:42046:1,2008-05-04T14:00:00Z,27.8903,-94.0367,4.0,5.326922188,76.9808071,7.16,'11111222,11111222,11111222' 
TABS,ioos:station:wmo:42046:1,2008-05-04T14:30:00Z,27.8903,-94.0367,4.0,6.190848084,83.41411371,7.51,'11111222,11111222,11111222' 
TABS,ioos:station:wmo:42046:1,2008-05-04T15:00:00Z,27.8903,-94.0367,4.0,6.630007541,82.28502855,8.38,'11111222,11111222,11111222' 
TABS,ioos:station:wmo:42046:1,2008-05-04T15:30:00Z,27.8903,-94.0367,4.0,6.194650918,87.77921226,7.97,'11111222,11111222,11111222' 
TABS,ioos:station:wmo:42046:1,2008-05-04T16:00:00Z,27.8903,-94.0367,4.0,6.50590501,84.88489459,8.13,'11111222,11111222,11111222' 
TABS,ioos:station:wmo:42046:1,2008-05-04T16:30:00Z,27.8903,-94.0367,4.0,6.399562485,94.48151619,8.01,'11111222,11111222,11111222' 
TABS,ioos:station:wmo:42046:1,2008-05-04T17:00:00Z,27.8903,-94.0367,4.0,7.083678423,93.56161071,9.11,'11111222,11111222,11111222' 
TABS,ioos:station:wmo:42046:1,2008-05-04T17:30:00Z,27.8903,-94.0367,4.0,7.387909041,96.52901333,9.54,'11111222,11111222,11111222' 
TABS,ioos:station:wmo:42046:1,2008-05-04T18:00:00Z,27.8903,-94.0367,4.0,7.112474956,98.73431353,8.74,'11111222,11111222,11111222' 
TABS,ioos:station:wmo:42046:1,2008-05-04T18:30:00Z,27.8903,-94.0367,4.0,7.334337053,100.130562,8.79,'11111222,11111222,11111222' 